Regional Weather Roundup
Issued by NWS

Current Version | Previous Version | Text Only | Print | Product List | Glossary On
Versions: 1 2 3 4 5 6 7 8 9 10 11 12 13 14 15 16 17 18 19 20 21 22 23 24 25 26 27 28 29 30 31 32 33 34 35 36 37 38 39 40 41 42 43 44 45 46 47 48 49 50
000
ASUS43 KTOP 242108
RWRKS

WEATHER ROUNDUP FOR KANSAS
NATIONAL WEATHER SERVICE GOODLAND KS
300 PM CST FRI FEB 24 2017

NOTE:  "FAIR" INDICATES FEW OR NO CLOUDS BELOW 12,000 FEET WITH NO
SIGNIFICANT WEATHER AND/OR OBSTRUCTIONS TO VISIBILITY.

KSZ001>006-013>018-027>032-041>047-242200-
NORTHWEST KANSAS

CITY           SKY/WX    TMP DP  RH WIND       PRES   REMARKS
GOODLAND       CLOUDY    28  20  71 N17       29.98R WCI  16
HAYS           MOSUNNY   35  19  52 N18G30    29.97R WCI  24
HILL CITY      CLOUDY    34  22  61 N25G33    29.99R WCI  21
RUSSELL        CLOUDY    31  22  69 N22G30    29.96R WCI  18
$$

KSZ061>065-074>080-084>089-242200-
SOUTHWEST KANSAS

CITY           SKY/WX    TMP DP  RH WIND       PRES   REMARKS
DODGE CITY     CLOUDY    35  19  52 N22G30    29.96R WCI  23
ELKHART          N/A     38  11  33 N14         N/A  WCI  30
GARDEN CITY    CLOUDY    36  17  46 N21       29.96R WCI  25
GREAT BEND     FLURRIES  34  21  59 N23G31    29.96R WCI  22
LIBERAL        MOSUNNY   41  16  36 N22G28    29.97R
PRATT          PTSUNNY   37  18  47 N28G35    29.95R WCI  24
$$

KSZ066>073-081>083-090>101-242200-
SOUTHEAST KANSAS

CITY           SKY/WX    TMP DP  RH WIND       PRES   REMARKS
CHANUTE        CLOUDY    41  23  48 W22G35    29.84R
COFFEYVILLE    MOSUNNY   45  25  45 NW22G30   29.86R
HUTCHINSON     CLOUDY    36  19  50 NW22G33   29.93R WCI  25
MEDICINE LODGE   N/A     40  18  41 N21G33    29.94R WCI  30
NEWTON         CLOUDY    33  19  56 NW21      29.92R WCI  21
PARSONS        PTSUNNY   44  24  45 NW24G31   29.86R
WICHITA INTL   CLOUDY    36  19  50 NW22G30   29.93R WCI  25
WICHITA JABRA  CLOUDY    35  20  54 N24G33    29.92R WCI  23
WICHITA MCCONL MOSUNNY   36  18  49 NW20G30   29.91R WCI  25
WINFIELD       CLOUDY    39  23  52 NW23G32   29.92R WCI  28
$$

KSZ007>012-019>026-033>040-048>060-102>105-242200-
NORTHEAST KANSAS

CITY           SKY/WX    TMP DP  RH WIND       PRES   REMARKS
CONCORDIA      MIX PCPN  27  22  81 N22G30    29.94R WCI  13
EMPORIA        CLOUDY    32  23  69 NW21G30   29.87R WCI  20
LAWRENCE       CLOUDY    32  27  81 NW21G28   29.83R WCI  20
MANHATTAN      CLOUDY    32  22  66 NW10G24   29.92R WCI  24
MARYSVILLE     LGT SNOW  27  23  86 NW23G31   29.89R WCI  12
OLATHE IND     CLOUDY    33  29  85 NW16G25   29.80R WCI  23
OLATHE EXE     MIX PCPN  33  29  85 NW15G25   29.78R WCI  23
SALINA         LGT SNOW  33  23  66 NW23      29.95R WCI  21
TOPEKA BILLARD MIX PCPN  33  26  75 NW21      29.85R WCI  21
TOPEKA FORBES  CLOUDY    34  25  69 NW18      29.83R WCI  23
$$



USA.gov is the U.S. government's official web portal to all federal, state and local government web resources and services.